GW1975 Weather Reports


Display with metric or nautical units.
time (UTC)temp
F
wind
direction
speed
MPH
gust
MPH
rain 1hr
in
rain 24hr
in
rain mn
in
humidity
%
barometer
mb
20260509130736 57 209 2.0 5.0 0.00 0.00 0.00 92 1011.0
20260509130235 57 112 4.0 5.0 0.00 0.00 0.00 92 1011.0
20260509125735 57 323 1.0 4.0 0.00 0.00 0.00 92 1011.0
20260509125236 57 273 3.0 3.0 0.00 0.00 0.00 92 1011.0
20260509124736 57 314 2.0 6.0 0.00 0.00 0.00 92 1011.0
20260509124236 57 253 2.0 4.0 0.00 0.00 0.00 92 1011.0
20260509123735 56 250 1.0 6.0 0.00 0.00 0.00 92 1011.0
20260509123236 57 267 3.0 6.0 0.00 0.00 0.00 93 1011.0
20260509122735 57 200 1.0 3.0 0.00 0.00 0.00 93 1011.0
20260509122236 56 256 3.0 5.0 0.00 0.00 0.00 93 1011.0
20260509121735 56 275 0.0 6.0 0.00 0.00 0.00 94 1011.0
20260509121235 57 142 0.0 3.0 0.00 0.00 0.00 94 1011.0
20260509120736 57 282 3.0 6.0 0.00 0.00 0.00 95 1011.0
20260509120236 57 274 3.0 7.0 0.00 0.00 0.00 95 1011.0
20260509115736 56 331 2.0 7.0 0.00 0.00 0.00 96 1011.0
20260509115235 56 327 3.0 6.0 0.00 0.00 0.00 96 1011.0
20260509114735 56 241 2.0 5.0 0.00 0.00 0.00 97 1010.0
20260509114235 56 105 1.0 5.0 0.00 0.00 0.00 97 1011.0
20260509113735 56 217 2.0 4.0 0.00 0.00 0.00 97 1010.0
20260509113236 56 113 2.0 3.0 0.00 0.00 0.00 97 1011.0
20260509112735 56 304 0.0 5.0 0.00 0.00 0.00 97 1010.0
20260509112235 56 117 2.0 4.0 0.00 0.00 0.00 97 1010.0
20260509111735 56 184 2.0 5.0 0.00 0.00 0.00 97 1011.0
20260509111235 56 271 2.0 6.0 0.00 0.00 0.00 97 1010.0
20260509110736 56 321 2.0 5.0 0.00 0.00 0.00 97 1011.0
20260509110235 56 108 0.0 4.0 0.00 0.00 0.00 97 1010.0
20260509105735 56 245 3.0 4.0 0.00 0.00 0.00 97 1010.0
20260509105235 56 250 2.0 5.0 0.00 0.00 0.00 97 1010.0
20260509104735 56 247 2.0 5.0 0.00 0.00 0.00 97 1011.0
20260509104235 56 286 4.0 6.0 0.00 0.00 0.00 97 1011.0
20260509103735 56 306 3.0 6.0 0.00 0.00 0.00 97 1010.0
20260509103235 56 233 4.0 5.0 0.00 0.00 0.00 97 1011.0
20260509102736 56 256 1.0 5.0 0.00 0.00 0.00 97 1010.0
20260509102235 56 239 0.0 3.0 0.00 0.00 0.00 97 1010.0
20260509101736 56 149 3.0 4.0 0.00 0.00 0.00 97 1010.0
20260509101235 56 247 3.0 5.0 0.00 0.00 0.00 97 1010.0
20260509100735 56 264 2.0 4.0 0.00 0.00 0.00 97 1010.0
20260509100235 56 192 2.0 5.0 0.00 0.00 0.00 97 1010.0
20260509095735 56 247 1.0 6.0 0.00 0.00 0.00 97 1010.0
20260509095235 56 335 3.0 7.0 0.00 0.00 0.00 97 1010.0
20260509094735 56 224 2.0 5.0 0.00 0.00 0.00 97 1010.0
20260509094235 57 308 2.0 4.0 0.00 0.00 0.00 97 1010.0
20260509093735 57 81 2.0 5.0 0.00 0.00 0.00 97 1010.0
20260509093235 57 265 2.0 7.0 0.00 0.00 0.00 97 1010.0
20260509092735 57 210 2.0 4.0 0.00 0.00 0.00 97 1010.0
20260509092235 57 115 4.0 6.0 0.00 0.00 0.00 97 1010.0
20260509091735 57 124 5.0 5.0 0.00 0.00 0.00 97 1010.0
20260509091236 57 254 0.0 5.0 0.00 0.00 0.00 97 1010.0
20260509090735 57 128 4.0 5.0 0.00 0.00 0.00 97 1010.0
20260509090235 57 311 5.0 6.0 0.00 0.00 0.00 97 1010.0
20260509085735 57 336 2.0 5.0 0.00 0.00 0.00 97 1009.0
20260509085235 57 300 2.0 6.0 0.00 0.00 0.00 97 1009.0
20260509084736 57 223 2.0 6.0 0.00 0.00 0.00 97 1010.0
20260509084235 57 224 0.0 1.0 0.00 0.00 0.00 97 1010.0
20260509083735 57 276 3.0 3.0 0.00 0.00 0.00 97 1010.0
20260509083236 57 216 0.0 2.0 0.00 0.00 0.00 97 1010.0
20260509082736 57 256 0.0 2.0 0.00 0.00 0.00 97 1010.0
20260509082235 57 232 0.0 2.0 0.00 0.00 0.00 97 1010.0
20260509081735 56 246 0.0 1.0 0.00 0.00 0.00 97 1010.0
20260509081236 56 229 0.0 0.0 0.00 0.00 0.00 97 1010.0
20260509080735 56 243 0.0 1.0 0.00 0.00 0.00 97 1010.0
20260509080235 56 257 0.0 1.0 0.00 0.00 0.00 97 1009.0
20260509075735 56 244 0.0 2.0 0.00 0.00 0.00 97 1010.0
20260509075235 56 222 0.0 1.0 0.00 0.00 0.00 97 1009.0
20260509074735 56 329 0.0 0.0 0.00 0.00 0.00 97 1009.0
20260509074235 56 265 1.0 3.0 0.00 0.00 0.00 97 1009.0
20260509073735 56 230 0.0 1.0 0.00 0.00 0.00 97 1010.0
20260509073236 57 235 1.0 1.0 0.00 0.00 0.00 97 1009.0
20260509072736 57 269 0.0 1.0 0.00 0.00 0.00 96 1010.0
20260509072239 57 226 0.0 0.0 0.00 0.00 0.00 97 1010.0
20260509071735 57 230 0.0 0.0 0.00 0.00 0.00 96 1010.0
20260509071235 57 242 0.0 0.0 0.00 0.00 0.00 96 1009.0
20260509070735 57 224 0.0 0.0 0.00 0.00 0.00 96 1010.0
20260509070235 57 230 0.0 2.0 0.00 0.00 0.00 96 1010.0
20260509065735 57 217 0.0 1.0 0.00 0.00 0.00 96 1009.0
20260509065235 57 253 0.0 1.0 0.00 0.00 0.00 96 1009.0
20260509064735 57 135 0.0 1.0 0.00 0.00 0.00 96 1009.0
20260509064235 57 230 0.0 0.0 0.00 0.00 0.00 96 1009.0
20260509063735 57 242 0.0 1.0 0.00 0.00 0.00 96 1009.0
20260509063235 57 269 0.0 0.0 0.00 0.00 0.00 96 1010.0
20260509062735 57 243 0.0 0.0 0.00 0.00 0.00 96 1009.0
20260509062235 57 243 0.0 2.0 0.00 0.00 0.00 96 1009.0
20260509061735 57 165 0.0 0.0 0.00 0.00 0.00 96 1009.0
20260509061236 57 117 0.0 1.0 0.00 0.00 0.00 96 1009.0
20260509060737 57 235 0.0 0.0 0.00 0.00 0.00 96 1009.0
20260509060235 57 117 0.0 0.0 0.00 0.00 0.00 96 1009.0
20260509055735 57 117 0.0 2.0 0.00 0.00 0.00 96 1009.0
20260509055235 57 142 0.0 0.0 0.00 0.00 0.00 96 1009.0
20260509054737 57 135 0.0 0.0 0.00 0.00 0.00 96 1010.0
20260509054235 57 287 0.0 1.0 0.00 0.00 0.00 96 1010.0
20260509053735 57 309 0.0 1.0 0.00 0.00 0.00 96 1010.0
20260509053235 57 122 1.0 1.0 0.00 0.00 0.00 96 1010.0
20260509052736 57 110 0.0 1.0 0.00 0.00 0.00 96 1010.0
20260509052235 57 224 0.0 0.0 0.00 0.00 0.00 96 1010.0
20260509051735 57 113 0.0 0.0 0.00 0.00 0.00 96 1010.0
20260509051237 57 119 0.0 1.0 0.00 0.00 0.00 96 1010.0
20260509050735 57 126 2.0 3.0 0.00 0.00 0.00 96 1010.0
20260509050235 57 142 1.0 2.0 0.00 0.00 0.00 96 1010.0
20260509045735 57 152 1.0 2.0 0.00 0.00 0.00 96 1010.0
20260509045235 57 147 1.0 1.0 0.00 0.00 0.00 96 1010.0
20260509044735 57 150 1.0 3.0 0.00 0.00 0.00 95 1010.0
20260509044235 57 195 0.0 3.0 0.00 0.00 0.00 95 1010.0
20260509043735 57 140 1.0 3.0 0.00 0.00 0.00 95 1010.0
20260509043237 57 145 1.0 2.0 0.00 0.00 0.00 95 1010.0
20260509042736 57 137 2.0 3.0 0.00 0.00 0.00 95 1010.0
20260509042235 57 148 0.0 1.0 0.00 0.00 0.00 95 1010.0
20260509041735 58 154 2.0 2.0 0.00 0.00 0.00 95 1010.0
20260509041235 58 192 1.0 3.0 0.00 0.00 0.00 95 1010.0
20260509040737 58 136 0.0 2.0 0.00 0.00 0.00 94 1010.0
20260509040235 58 135 0.0 1.0 0.00 0.00 0.00 94 1010.0
20260509035736 58 122 0.0 1.0 0.00 0.00 0.00 94 1011.0
20260509035235 58 242 0.0 1.0 0.00 0.00 0.00 94 1011.0
20260509034736 58 224 0.0 1.0 0.00 0.00 0.00 94 1011.0
20260509034235 57 135 0.0 0.0 0.00 0.00 0.00 93 1011.0
20260509033735 57 89 0.0 1.0 0.00 0.00 0.00 93 1011.0
20260509033236 58 119 0.0 0.0 0.00 0.00 0.00 93 1011.0
20260509032735 58 40 1.0 2.0 0.00 0.00 0.00 93 1011.0
20260509032235 58 217 0.0 2.0 0.00 0.00 0.00 93 1011.0
20260509031738 58 230 0.0 0.0 0.00 0.00 0.00 93 1012.0
20260509031235 58 333 0.0 2.0 0.00 0.00 0.00 93 1012.0
20260509030736 58 62 0.0 0.0 0.00 0.00 0.00 92 1011.0
20260509030235 59 162 0.0 1.0 0.00 0.00 0.00 92 1011.0
20260509025735 59 220 0.0 0.0 0.00 0.00 0.00 91 1011.0
20260509025235 59 117 0.0 2.0 0.00 0.00 0.00 91 1011.0
20260509024735 59 240 0.0 0.0 0.00 0.00 0.00 91 1011.0
20260509024235 59 322 0.0 2.0 0.00 0.00 0.00 90 1011.0
20260509023735 59 164 0.0 0.0 0.00 0.00 0.00 90 1011.0
20260509023236 60 134 1.0 2.0 0.00 0.00 0.00 90 1011.0
20260509022735 60 37 0.0 0.0 0.00 0.00 0.00 87 1012.0
20260509022236 60 235 0.0 1.0 0.00 0.00 0.00 87 1011.0
20260509021735 60 220 0.0 0.0 0.00 0.00 0.00 86 1011.0
20260509021235 60 220 0.0 0.0 0.00 0.00 0.00 85 1011.0
20260509020735 60 130 0.0 0.0 0.00 0.00 0.00 85 1011.0
20260509020235 60 217 0.0 0.0 0.00 0.00 0.00 84 1011.0
20260509015735 60 224 0.0 0.0 0.00 0.00 0.00 83 1011.0
20260509015235 60 351 0.0 1.0 0.00 0.00 0.00 84 1010.0
20260509014735 60 315 0.0 2.0 0.00 0.00 0.00 83 1010.0
20260509014235 60 342 0.0 1.0 0.00 0.00 0.00 84 1010.0
20260509013735 61 336 0.0 2.0 0.00 0.00 0.00 84 1010.0
20260509013236 61 335 3.0 4.0 0.00 0.00 0.00 81 1009.0
20260509012736 61 106 1.0 3.0 0.00 0.00 0.00 81 1009.0
20260509012235 61 35 1.0 3.0 0.00 0.00 0.00 80 1009.0
20260509011736 61 75 3.0 4.0 0.00 0.00 0.00 80 1009.0
20260509011235 61 76 2.0 5.0 0.00 0.00 0.00 80 1010.0
20260509010735 61 83 1.0 3.0 0.00 0.00 0.00 80 1010.0
20260509010235 62 332 3.0 3.0 0.00 0.00 0.00 81 1010.0
20260509005736 62 68 0.0 5.0 0.00 0.00 0.00 77 1010.0
20260509005236 63 318 3.0 5.0 0.00 0.00 0.00 74 1010.0
20260509004735 64 310 5.0 5.0 0.00 0.00 0.00 73 1009.0
20260509004235 64 311 1.0 6.0 0.00 0.00 0.00 72 1010.0
20260509003735 65 352 0.0 3.0 0.00 0.00 0.00 68 1009.0
20260509003235 66 331 2.0 5.0 0.00 0.00 0.00 67 1009.0
20260509002735 67 349 2.0 5.0 0.00 0.00 0.00 63 1009.0
20260509002236 67 327 4.0 5.0 0.00 0.00 0.00 59 1009.0
20260509001736 68 345 2.0 3.0 0.00 0.00 0.00 59 1009.0
20260509001235 68 333 2.0 5.0 0.00 0.00 0.00 59 1009.0
20260509000735 68 298 3.0 4.0 0.00 0.00 0.00 57 1009.0
20260509000235 69 295 3.0 4.0 0.00 0.00 0.00 56 1009.0
20260508235735 69 333 4.0 5.0 0.00 0.00 0.00 54 1009.0
20260508235235 70 303 3.0 4.0 0.00 0.00 0.00 52 1009.0
20260508234735 70 293 2.0 3.0 0.00 0.00 0.00 52 1009.0
20260508234235 70 323 2.0 3.0 0.00 0.00 0.00 51 1009.0
20260508233736 70 302 2.0 4.0 0.00 0.00 0.00 51 1009.0
20260508233235 70 294 2.0 4.0 0.00 0.00 0.00 50 1009.0
20260508232735 71 291 2.0 3.0 0.00 0.00 0.00 50 1009.0
20260508232236 71 283 2.0 2.0 0.00 0.00 0.00 50 1009.0
20260508231735 71 288 2.0 3.0 0.00 0.00 0.00 48 1009.0
20260508231236 71 281 1.0 3.0 0.00 0.00 0.00 48 1009.0
20260508230735 71 287 1.0 2.0 0.00 0.00 0.00 48 1010.0
20260508230235 71 296 3.0 3.0 0.00 0.00 0.00 47 1009.0
20260508225735 71 290 2.0 4.0 0.00 0.00 0.00 47 1010.0
20260508225235 72 319 4.0 5.0 0.00 0.00 0.00 46 1009.0
20260508224735 72 300 3.0 4.0 0.00 0.00 0.00 45 1010.0
20260508224235 72 309 4.0 5.0 0.00 0.00 0.00 45 1010.0
20260508223735 73 300 3.0 5.0 0.00 0.00 0.00 46 1009.0
20260508223235 73 321 4.0 4.0 0.00 0.00 0.00 43 1010.0
20260508222736 73 271 2.0 4.0 0.00 0.00 0.00 41 1009.0
20260508222235 75 260 1.0 2.0 0.00 0.00 0.00 39 1010.0
20260508221735 75 255 3.0 4.0 0.00 0.00 0.00 38 1010.0
20260508221235 75 311 3.0 4.0 0.00 0.00 0.00 40 1010.0
20260508220736 75 281 4.0 4.0 0.00 0.00 0.00 38 1010.0
20260508220235 74 247 3.0 4.0 0.00 0.00 0.00 40 1010.0
20260508215736 73 236 1.0 4.0 0.00 0.00 0.00 41 1010.0
20260508215235 73 256 2.0 4.0 0.00 0.00 0.00 40 1010.0
20260508214735 75 328 4.0 6.0 0.00 0.00 0.00 39 1010.0
20260508214236 75 260 4.0 4.0 0.00 0.00 0.00 39 1010.0
20260508213735 75 304 3.0 4.0 0.00 0.00 0.00 43 1010.0
20260508213235 74 278 2.0 4.0 0.00 0.00 0.00 41 1010.0
20260508212735 74 242 3.0 6.0 0.00 0.00 0.00 41 1010.0
20260508212235 74 234 3.0 5.0 0.00 0.00 0.00 41 1010.0
20260508211736 73 271 2.0 5.0 0.00 0.00 0.00 42 1010.0
20260508211235 73 280 3.0 4.0 0.00 0.00 0.00 43 1010.0
20260508210735 72 300 2.0 3.0 0.00 0.00 0.00 42 1011.0
20260508210235 73 258 2.0 4.0 0.00 0.00 0.00 42 1010.0
20260508205735 73 261 3.0 5.0 0.00 0.00 0.00 42 1010.0
20260508205235 73 278 3.0 8.0 0.00 0.00 0.00 44 1011.0
20260508204735 74 249 4.0 8.0 0.00 0.00 0.00 41 1011.0
20260508204235 73 239 3.0 5.0 0.00 0.00 0.00 44 1011.0
20260508203735 73 273 3.0 5.0 0.00 0.00 0.00 42 1011.0
20260508203235 75 309 5.0 7.0 0.00 0.00 0.00 44 1011.0
20260508202735 73 306 4.0 4.0 0.00 0.00 0.00 45 1011.0
20260508202236 73 235 2.0 6.0 0.00 0.00 0.00 46 1011.0
20260508201735 73 253 1.0 5.0 0.00 0.00 0.00 46 1011.0
20260508201236 73 268 4.0 5.0 0.00 0.00 0.00 46 1012.0
20260508200736 72 241 2.0 5.0 0.00 0.00 0.00 45 1011.0
20260508200235 71 281 2.0 5.0 0.00 0.00 0.00 45 1012.0
20260508195736 72 248 2.0 5.0 0.00 0.00 0.00 45 1012.0
20260508195235 72 250 2.0 9.0 0.00 0.00 0.00 44 1011.0
20260508194735 72 293 3.0 4.0 0.00 0.00 0.00 43 1012.0
20260508194238 73 254 6.0 6.0 0.00 0.00 0.00 42 1012.0
20260508193735 72 279 5.0 5.0 0.00 0.00 0.00 43 1012.0
20260508193235 72 241 1.0 4.0 0.00 0.00 0.00 43 1012.0
20260508192735 73 236 0.0 4.0 0.00 0.00 0.00 43 1012.0
20260508192236 73 251 3.0 7.0 0.00 0.00 0.00 43 1012.0
20260508191735 72 268 3.0 3.0 0.00 0.00 0.00 44 1012.0
20260508191238 72 263 5.0 5.0 0.00 0.00 0.00 44 1012.0
20260508190735 72 286 4.0 4.0 0.00 0.00 0.00 45 1012.0
20260508190235 71 256 2.0 4.0 0.00 0.00 0.00 48 1012.0
20260508185737 71 240 0.0 2.0 0.00 0.00 0.00 49 1012.0
20260508185235 71 267 2.0 5.0 0.00 0.00 0.00 49 1012.0
20260508184735 70 243 0.0 2.0 0.00 0.00 0.00 51 1012.0
20260508184235 70 195 0.0 5.0 0.00 0.00 0.00 52 1012.0
20260508183735 69 152 1.0 2.0 0.00 0.00 0.00 51 1012.0
20260508183235 69 261 2.0 2.0 0.00 0.00 0.00 50 1012.0
20260508182737 69 243 2.0 3.0 0.00 0.00 0.00 50 1012.0
20260508182236 69 230 1.0 2.0 0.00 0.00 0.00 51 1012.0
20260508181735 69 275 2.0 3.0 0.00 0.00 0.00 51 1013.0
20260508181236 69 283 2.0 4.0 0.00 0.00 0.00 50 1013.0
20260508180738 68 242 2.0 3.0 0.00 0.00 0.00 51 1013.0
20260508180236 68 250 2.0 2.0 0.00 0.00 0.00 53 1013.0
20260508175735 68 293 2.0 2.0 0.00 0.00 0.00 51 1013.0
20260508175236 68 262 2.0 4.0 0.00 0.00 0.00 50 1013.0
20260508174735 68 261 2.0 4.0 0.00 0.00 0.00 50 1013.0
20260508174235 67 271 3.0 3.0 0.00 0.00 0.00 53 1013.0
20260508173735 67 285 3.0 5.0 0.00 0.00 0.00 52 1013.0
20260508173235 67 214 0.0 2.0 0.00 0.00 0.00 56 1013.0
20260508172737 66 266 2.0 3.0 0.00 0.00 0.00 55 1013.0
20260508172236 66 274 2.0 5.0 0.00 0.00 0.00 53 1013.0
20260508171736 66 224 0.0 3.0 0.00 0.00 0.00 55 1013.0
20260508171235 65 213 1.0 2.0 0.00 0.00 0.00 57 1013.0
20260508170736 65 212 0.0 1.0 0.00 0.00 0.00 59 1014.0
20260508170236 65 252 1.0 1.0 0.00 0.00 0.00 56 1013.0
20260508165737 65 161 1.0 2.0 0.00 0.00 0.00 55 1014.0
20260508165236 65 181 0.0 2.0 0.00 0.00 0.00 57 1014.0
20260508164735 65 224 0.0 1.0 0.00 0.00 0.00 55 1014.0
20260508164236 64 224 0.0 1.0 0.00 0.00 0.00 56 1014.0
20260508163737 64 210 1.0 3.0 0.00 0.00 0.00 56 1014.0
20260508163235 63 205 0.0 1.0 0.00 0.00 0.00 59 1014.0
20260508162736 63 265 2.0 4.0 0.00 0.00 0.00 59 1014.0
20260508162235 63 209 0.0 1.0 0.00 0.00 0.00 59 1014.0
20260508161735 63 211 0.0 2.0 0.00 0.00 0.00 59 1014.0
20260508161237 63 195 0.0 1.0 0.00 0.00 0.00 61 1014.0
20260508160735 63 262 0.0 2.0 0.00 0.00 0.00 60 1014.0
20260508160236 63 243 0.0 2.0 0.00 0.00 0.00 60 1014.0
20260508155735 63 240 0.0 1.0 0.00 0.00 0.00 59 1014.0
20260508155236 63 208 0.0 1.0 0.00 0.00 0.00 60 1015.0
20260508154736 63 157 0.0 1.0 0.00 0.00 0.00 59 1015.0
20260508154236 63 242 0.0 2.0 0.00 0.00 0.00 59 1015.0
20260508153735 63 241 0.0 2.0 0.00 0.00 0.00 59 1015.0
20260508153235 62 253 2.0 3.0 0.00 0.00 0.00 58 1015.0
20260508152735 62 224 0.0 3.0 0.00 0.00 0.00 59 1015.0
20260508152235 62 230 0.0 2.0 0.00 0.00 0.00 59 1014.0
20260508151735 63 246 1.0 2.0 0.00 0.00 0.00 59 1015.0
20260508151235 62 202 0.0 2.0 0.00 0.00 0.00 59 1014.0
20260508150736 62 255 1.0 1.0 0.00 0.00 0.00 59 1015.0
20260508150235 62 255 1.0 3.0 0.00 0.00 0.00 59 1015.0
20260508145736 62 274 1.0 2.0 0.00 0.00 0.00 57 1015.0
20260508145235 62 245 5.0 5.0 0.00 0.00 0.00 57 1015.0
20260508144736 62 242 2.0 5.0 0.00 0.00 0.00 55 1015.0
20260508144235 63 271 0.0 2.0 0.00 0.00 0.00 56 1015.0
20260508143735 63 222 1.0 2.0 0.00 0.00 0.00 55 1015.0
20260508143236 64 284 2.0 4.0 0.00 0.00 0.00 54 1015.0
20260508142737 64 222 0.0 2.0 0.00 0.00 0.00 55 1015.0
20260508142236 65 247 2.0 4.0 0.00 0.00 0.00 52 1016.0
20260508141736 65 245 3.0 3.0 0.00 0.00 0.00 52 1015.0
20260508141236 65 281 2.0 3.0 0.00 0.00 0.00 52 1015.0
20260508140736 64 217 3.0 4.0 0.00 0.00 0.00 51 1015.0
20260508140238 64 259 4.0 5.0 0.00 0.00 0.00 53 1015.0
20260508135736 63 250 1.0 3.0 0.00 0.00 0.00 54 1015.0
20260508135235 63 224 3.0 3.0 0.00 0.00 0.00 55 1015.0
20260508134736 62 233 1.0 2.0 0.00 0.00 0.00 57 1015.0
20260508134235 61 199 1.0 2.0 0.00 0.00 0.00 57 1015.0
20260508133736 61 218 0.0 3.0 0.00 0.00 0.00 61 1015.0
20260508133237 60 223 1.0 2.0 0.00 0.00 0.00 61 1015.0
20260508132736 59 254 0.0 1.0 0.00 0.00 0.00 65 1015.0
20260508132237 59 218 0.0 1.0 0.00 0.00 0.00 66 1015.0
20260508131736 58 177 1.0 2.0 0.00 0.00 0.00 68 1015.0
20260508131236 57 142 0.0 2.0 0.00 0.00 0.00 69 1015.0